Regional Weather Roundup
Issued by NWS

Home | Current Version | Previous Version | Text Only | Print | Product List | Glossary Off
Versions: 1 2 3 4 5 6 7 8 9 10 11 12 13 14 15 16 17 18 19 20 21 22 23 24 25 26 27 28 29 30 31 32 33 34 35 36 37 38 39 40 41 42 43 44 45 46 47 48 49 50

000
ASUS43 KTOP 180159
RWRKS

WEATHER ROUNDUP FOR KANSAS
NATIONAL WEATHER SERVICE GOODLAND KS
900 PM CDT TUE OCT 17 2017

NOTE:  "FAIR" INDICATES FEW OR NO CLOUDS BELOW 12,000 FEET WITH NO
SIGNIFICANT WEATHER AND/OR OBSTRUCTIONS TO VISIBILITY.

KSZ001>006-013>018-027>032-041>047-180300-
NORTHWEST KANSAS

CITY           SKY/WX    TMP DP  RH WIND       PRES   REMARKS
GOODLAND       CLEAR     56  30  37 S12       30.05R
HAYS           CLEAR     59  44  57 S12       30.02S
HILL CITY      CLEAR     53  40  61 SW3       30.01S
RUSSELL        CLEAR     61  47  59 S13       30.00S
$$

KSZ061>065-074>080-084>089-180300-
SOUTHWEST KANSAS

CITY           SKY/WX    TMP DP  RH WIND       PRES   REMARKS
DODGE CITY     CLEAR     57  40  52 SE10      30.05R
ELKHART          N/A     64  39  39 S5          N/A
GARDEN CITY    CLEAR     58  40  51 SE10      30.03S
GREAT BEND     CLEAR     59  44  57 S10       30.04S
LIBERAL        CLEAR     59  44  57 SE10      30.03R
$$

KSZ066>073-081>083-090>101-180300-
SOUTHEAST KANSAS

CITY           SKY/WX    TMP DP  RH WIND       PRES   REMARKS
CHANUTE        CLEAR     57  46  66 S9        30.12S
COFFEYVILLE    CLEAR     56  46  69 S7        30.13R
HUTCHINSON     CLEAR     58  47  66 S9        30.06R
MEDICINE LODGE   N/A     62  42  47 MISG      30.07R
NEWTON         CLEAR     58  45  62 S12       30.08S
PARSONS        CLEAR     58  46  64 S6        30.14R
WICHITA INTL   CLEAR     59  47  64 S9        30.08R
WICHITA JABRA  CLEAR     57  47  69 S9        30.08S
WICHITA MCCONL CLEAR     58  45  62 S8        30.08S
WINFIELD       CLEAR     58  48  69 SE6       30.11S
$$

KSZ007>012-019>026-033>040-048>060-102>105-180300-
NORTHEAST KANSAS

CITY           SKY/WX    TMP DP  RH WIND       PRES   REMARKS
CONCORDIA      CLEAR     65  47  52 S15       30.00F
EMPORIA          N/A     57  45  64 S8        30.09R
LAWRENCE       CLEAR     53  47  79 E6        30.09R
MANHATTAN      CLEAR     58  47  66 S3        30.04S
OLATHE IND     CLEAR     56  47  71 S8        30.10S
OLATHE EXE     CLEAR     55  47  74 S7        30.10S
SALINA         CLEAR     62  49  62 S12       30.04R
TOPEKA BILLARD CLEAR     61  49  64 S6        30.07R
TOPEKA FORBES  CLEAR     60  49  66 S9        30.07S
$$




USA.gov is the U.S. government's official web portal to all federal, state and local government web resources and services.